{"data":{"norad_id":81683,"intl_designator":"","name":"UNKNOWN","alt_names":[],"object_type":"UNKNOWN","status":"UNKNOWN","operator":null,"country":null,"launch_date":null,"launch_site_code":null,"launch_vehicle":null,"mission":null,"orbit_class":"UNKNOWN","rcs_meters":null,"size_class":null,"mass_kg":null,"dimensions":null,"purposes":[],"wikipedia_slug":null,"has_3d_model":false,"image_url":null,"decayed_at":null,"tle_current":{"epoch":"2026-09-16T06:45:43.141248Z","epoch_age_seconds":379164,"freshness":"STALE","line1":"1 81683U          26259.28174932  .00003014  00000+0  63525-3 0  9997","line2":"2 81683  81.2160   2.2255 0025205 166.0765 194.1133 14.59065969676316","mean_motion":14.59065969,"eccentricity":0.0025205,"inclination_deg":81.216,"raan_deg":2.2255,"arg_perigee_deg":166.0765,"mean_anomaly_deg":194.1133,"bstar":0.00063525,"rev_number":67631,"period_min":98.693275739063,"perigee_km":678.36065362683,"apogee_km":714.02234358831,"semimajor_km":7074.3284986076,"source":"CELESTRAK","updated_at":"2026-09-20T09:00:32.393857Z"}}}